Waarnemingen

Advertentie
Mijn weer
Åsele, Zweden (2254): temperatuur & dauwpunt: 12.11.2018 17:00:00 - 18.11.2018 17:00:00 (CET)Åsele, Zweden (2254): windsnelheid & windstoten: 12.11.2018 17:00:00 - 18.11.2018 17:00:00 (CET)Åsele, Zweden (2254): windrichting: 12.11.2018 17:00:00 - 18.11.2018 17:00:00 (CET)Åsele, Zweden (2254): luchtdruk: 12.11.2018 17:00:00 - 18.11.2018 17:00:00 (CET)Åsele, Zweden (2254): zicht: 12.11.2018 17:00:00 - 18.11.2018 17:00:00 (CET)Åsele, Zweden (2254): neerslag: 12.11.2018 17:00:00 - 18.11.2018 17:00:00 (CET)
Datum & Tijd tt [°C] td [°C] ff [km/u] ff [kn] fx [km/u] fx [kn] dd ppp [hPa] vv [km] rr [mm]
18.11.2018 17:00:00 -5,8 -6,3 0 0 3 2 N 1045,5 50 0,0
18.11.2018 16:00:00 -4,8 -5,2 0 0 5 3 N 1045,5 50 0,0
18.11.2018 15:00:00 -5,2 -5,6 0 0 6 3 N 1045,7 50 0,0
18.11.2018 14:00:00 -3,6 -4,0 0 0 4 2 N 1046,0 50 0,0
18.11.2018 13:00:00 -2,4 -2,7 0 0 4 2 N 1046,1 50 0,0
18.11.2018 12:00:00 -2,3 -2,9 3 2 7 4 W 1046,2 50 0,0
18.11.2018 11:00:00 -1,3 -2,0 0 0 8 4 N 1046,2 50 0,0
18.11.2018 10:00:00 -1,2 -2,3 6 3 17 9 N 1046,4 50 0,0
18.11.2018 09:00:00 -2,6 -3,0 6 3 11 6 N 1046,5 50 0,0
18.11.2018 08:00:00 -5,3 -5,7 2 1 9 5 WZW 1046,6 50 0,0
18.11.2018 07:00:00 -4,6 -5,1 4 2 6 4 NW 1045,9 50 0,0
18.11.2018 06:00:00 -3,0 -4,0 0 0 13 7 N 1046,1 50 0,0
18.11.2018 05:00:00 -2,8 -3,2 5 3 11 6 N 1045,7 50 0,0
18.11.2018 04:00:00 -3,4 -3,8 4 2 10 5 NNW 1045,4 50 0,0
18.11.2018 03:00:00 -3,7 -4,0 2 1 8 4 NW 1045,3 50 0,0
18.11.2018 02:00:00 -0,4 -1,0 7 4 16 8 NNW 1044,1 50 0,0
18.11.2018 01:00:00 -0,6 -1,2 7 4 15 8 NW 1043,5 50 0,0
18.11.2018 00:00:00 -2,2 -2,6 3 2 15 8 W 1043,1 50 0,0
17.11.2018 23:00:00 -3,1 -3,1 6 3 11 6 NNW 1042,5 50 0,0
17.11.2018 22:00:00 -3,1 -3,1 3 1 9 5 NNO 1041,7 50 0,0
17.11.2018 21:00:00 -2,7 -2,8 2 1 6 4 NNW 1041,1 50 0,0
17.11.2018 20:00:00 -2,2 -2,3 0 0 8 5 N 1040,2 28 0,0
17.11.2018 19:00:00 0,2 -0,1 5 3 14 7 W 1039,2 50 0,0
17.11.2018 18:00:00 -0,7 -1,3 5 3 11 6 WNW 1039,3 50 0,0
17.11.2018 17:00:00 3,6 0,8 8 4 19 10 NW 1038,0 50 0,0
17.11.2018 16:00:00 3,3 1,0 5 3 21 12 NW 1038,0 50 0,0
17.11.2018 15:00:00 3,6 1,2 3 2 14 8 NW 1037,0 50 0,0
17.11.2018 14:00:00 4,0 1,5 6 4 19 10 W 1036,9 47 0,0
17.11.2018 13:00:00 4,6 1,6 10 6 24 13 WNW 1036,3 49 0,0
17.11.2018 12:00:00 4,4 1,4 8 4 24 13 W 1036,1 38 0,0
17.11.2018 11:00:00 4,4 1,4 10 5 19 11 W 1035,6 42 0,0
17.11.2018 10:00:00 4,2 1,2 9 5 22 12 W 1035,1 43 0,0
17.11.2018 09:00:00 3,5 1,1 3 2 23 12 WNW 1034,3 38 0,0
17.11.2018 08:00:00 3,8 1,3 9 5 22 12 W 1033,3 46 0,0
17.11.2018 07:00:00 3,8 1,7 13 7 25 13 W 1031,9 43 0,0
17.11.2018 06:00:00 2,4 1,5 6 3 15 8 WNW 1032,3 38 0,0
17.11.2018 05:00:00 3,3 1,5 6 3 21 12 WZW 1031,4 34 0,0
17.11.2018 04:00:00 4,1 2,0 12 6 26 14 WZW 1030,5 32 0,0
17.11.2018 03:00:00 1,8 0,9 6 3 26 14 NW 1031,3 19 0,0
17.11.2018 02:00:00 3,7 1,7 6 3 29 16 NNW 1030,9 25 0,0
17.11.2018 01:00:00 2,4 1,4 6 3 13 7 ZW 1030,6 27 0,0
17.11.2018 00:00:00 1,6 1,0 2 1 25 13 O 1030,5 21 0,0
16.11.2018 23:00:00 2,1 1,4 5 3 17 9 W 1030,2 29 0,0
16.11.2018 22:00:00 4,5 3,5 8 4 32 18 W 1028,8 43 0,0
16.11.2018 21:00:00 0,1 0,1 0 0 5 3 N 1029,7 14 0,0
16.11.2018 20:00:00 0,1 0,1 2 1 5 3 NNO 1028,8 8 0,0
16.11.2018 19:00:00 1,6 1,6 3 2 14 8 W 1028,1 50 0,0
16.11.2018 18:00:00 -0,6 -0,6 4 2 6 4 NW 1028,0 12 0,0
16.11.2018 17:00:00 -0,6 -0,6 2 1 5 3 O 1027,5 8 0,0
16.11.2018 16:00:00 -0,2 -0,2 0 0 5 3 N 1027,3 11 0,0
16.11.2018 15:00:00 -0,2 -0,2 0 0 6 3 N 1026,6 8 0,0
16.11.2018 14:00:00 1,6 1,6 3 2 6 4 W 1025,9 26 0,0
16.11.2018 13:00:00 1,6 1,6 2 1 8 4 ZW 1025,3 1,0 0,0
16.11.2018 12:00:00 2,0 2,0 4 2 9 5 ZO 1024,2 0,4 0,0
16.11.2018 11:00:00 1,8 1,8 2 1 8 4 ZZW 1023,9 0,3 0,0
16.11.2018 10:00:00 1,2 1,2 3 2 10 6 WZW 1023,9 1,4 0,0
16.11.2018 09:00:00 2,6 2,6 6 3 12 6 ZZW 1022,9 7 0,0
16.11.2018 08:00:00 1,7 1,7 3 1 7 4 OZO 1022,8 1,4 0,0
16.11.2018 07:00:00 1,5 1,5 0 0 6 4 N 1022,5 0,5 0,0
16.11.2018 06:00:00 1,3 1,3 3 1 13 7 ZZO 1022,4 0,7 0,0
16.11.2018 05:00:00 0,7 0,7 5 3 13 7 ZZO 1022,9 34 0,0
16.11.2018 04:00:00 -1,6 -1,6 0 0 6 3 N 1022,9 0,3 0,0
16.11.2018 03:00:00 -2,1 -2,1 3 1 6 3 WZW 1023,5 0,6 0,0
16.11.2018 02:00:00 -1,3 -1,3 0 0 3 2 N 1023,4 1,1 0,0
16.11.2018 01:00:00 -0,8 -0,8 3 1 4 2 OZO 1023,6 21 0,0
16.11.2018 00:00:00 -0,4 -0,4 2 1 5 3 ONO 1023,7 19 0,0
15.11.2018 23:00:00 0,0 0,0 0 0 4 2 N 1023,8 18 0,0
15.11.2018 22:00:00 0,6 0,6 0 0 4 2 N 1023,5 17 0,0
15.11.2018 21:00:00 0,5 0,5 2 1 4 2 NNW 1023,3 18 0,0
15.11.2018 20:00:00 0,4 0,4 0 0 4 2 N 1023,0 11 0,0
15.11.2018 19:00:00 0,8 0,8 2 1 5 3 OZO 1022,6 16 0,0
15.11.2018 18:00:00 0,7 0,7 0 0 5 3 N 1022,0 17 0,4
15.11.2018 17:00:00 1,1 1,1 4 2 10 6 Z 1021,7 43 0,0
15.11.2018 16:00:00 0,3 0,3 2 1 6 3 Z 1021,0 24 0,0
15.11.2018 15:00:00 0,5 0,5 4 2 10 5 ZZW 1020,6 22 0,0
15.11.2018 14:00:00 0,2 0,2 2 1 9 5 Z 1019,9 24 0,0
15.11.2018 13:00:00 0,6 0,6 4 2 10 5 Z 1019,6 44 0,0
15.11.2018 12:00:00 0,4 0,4 6 3 11 6 ZZW 1019,1 50 0,0
15.11.2018 11:00:00 0,1 0,1 3 2 10 6 ZO 1018,5 36 0,0
15.11.2018 10:00:00 0,0 0,0 4 2 8 5 ZO 1017,2 48 0,0
15.11.2018 09:00:00 -0,1 -0,1 3 2 11 6 Z 1017,5 44 0,0
15.11.2018 08:00:00 -0,3 -0,3 4 2 11 6 ZZW 1017,4 50 0,0
15.11.2018 07:00:00 -0,5 -0,5 5 3 16 9 ZZW 1016,9 50 0,0
15.11.2018 06:00:00 -0,6 -0,6 9 5 19 11 ZW 1016,8 50 0,0
15.11.2018 05:00:00 -0,6 -0,6 4 2 9 5 Z 1016,7 50 0,0
15.11.2018 04:00:00 -0,4 -0,4 2 1 12 6 ZZO 1016,7 50 0,0
15.11.2018 03:00:00 -0,3 -0,3 5 3 16 9 ZZW 1017,1 50 0,0
15.11.2018 02:00:00 -1,7 -1,7 2 1 9 5 ZO 1017,1 50 0,0
15.11.2018 01:00:00 -1,2 -1,2 3 2 11 6 Z 1017,0 50 0,0
15.11.2018 00:00:00 -3,1 -3,2 0 0 5 3 N 1017,6 50 0,0
14.11.2018 23:00:00 -2,8 -2,9 0 0 6 3 N 1017,5 50 0,0
14.11.2018 22:00:00 -2,3 -2,3 0 0 3 2 N 1017,4 50 0,0
14.11.2018 21:00:00 -2,4 -2,4 0 0 4 2 N 1017,5 50 0,0
14.11.2018 20:00:00 -2,7 -2,7 3 1 5 3 O 1017,7 50 0,0
14.11.2018 19:00:00 -3,0 -3,1 0 0 4 2 N 1018,3 45 0,0
14.11.2018 18:00:00 -2,8 -2,9 3 1 5 3 ONO 1018,9 39 0,0
14.11.2018 17:00:00 -3,1 -3,2 0 0 3 2 N 1019,0 36 0,0
14.11.2018 16:00:00 -3,1 -3,2 0 0 3 2 N 1018,9 14 0,0
14.11.2018 15:00:00 -2,7 -2,8 0 0 5 3 N 1018,9 1,1 0,0
14.11.2018 14:00:00 -2,5 -2,5 2 1 4 2 OZO 1018,9 0,6 0,0
14.11.2018 13:00:00 -2,3 -2,3 0 0 4 2 N 1019,0 0,5 0,0
14.11.2018 12:00:00 -2,3 -2,3 0 0 4 2 N 1018,6 1,2 0,0
14.11.2018 11:00:00 -2,6 -2,7 0 0 3 1 N 1018,2 1,3 0,0
14.11.2018 10:00:00 -2,9 -3,0 0 0 3 1 N 1017,8 0,5 0,0
14.11.2018 09:00:00 -2,7 -2,7 0 0 4 2 N 1017,1 1,7 0,0
14.11.2018 08:00:00 -2,3 -2,3 0 0 3 2 N 1016,6 0,4 0,0
14.11.2018 07:00:00 -2,1 -2,1 0 0 4 2 N 1016,1 0,5 0,0
14.11.2018 06:00:00 -1,9 -1,9 0 0 5 3 N 1015,6 0,5 0,0
14.11.2018 05:00:00 -1,8 -1,8 0 0 3 2 N 1015,0 0,3 0,0
14.11.2018 04:00:00 -1,7 -1,7 2 1 5 3 WZW 1014,3 0,4 0,0
14.11.2018 03:00:00 -1,2 -1,2 0 0 3 2 N 1013,7 0,3 0,0
14.11.2018 02:00:00 -0,7 -0,7 0 0 4 2 N 1013,4 0,3 0,0
14.11.2018 01:00:00 -0,3 -0,3 0 0 4 2 N 1012,8 0,2 0,0
14.11.2018 00:00:00 -0,3 -0,3 0 0 10 5 N 1012,5 0,8 0,0
13.11.2018 23:00:00 -0,1 -0,1 0 0 4 2 N 1011,7 0,6 0,0
13.11.2018 22:00:00 0,1 0,1 0 0 4 2 N 1011,4 0,4 0,0
13.11.2018 21:00:00 0,4 0,4 0 0 3 2 N 1011,1 0,4 0,0
13.11.2018 20:00:00 0,1 0,1 0 0 3 2 N 1010,5 1,2 0,0
13.11.2018 19:00:00 -0,8 -0,8 0 0 3 2 N 1010,4 0,3 0,0
13.11.2018 18:00:00 0,6 0,5 0 0 6 3 N 1009,9 6 0,0
13.11.2018 17:00:00 1,7 1,6 3 1 6 3 ZZW 1009,3 2,4 0,0
13.11.2018 16:00:00 4,0 3,6 2 1 10 5 NW 1008,8 48 0,0
13.11.2018 15:00:00 4,5 4,1 4 2 10 5 W 1008,5 50 0,0
13.11.2018 14:00:00 4,9 4,3 5 3 12 7 W 1007,9 50 0,0
13.11.2018 13:00:00 5,1 4,7 5 3 16 9 W 1007,7 50 0,0
13.11.2018 12:00:00 5,1 5,1 4 2 9 5 WZW 1007,6 50 0,0
13.11.2018 11:00:00 3,8 3,8 2 1 6 3 WZW 1007,7 41 0,0
13.11.2018 10:00:00 1,7 1,7 0 0 5 3 N 1007,7 14 0,0
13.11.2018 09:00:00 1,9 1,9 3 2 5 3 OZO 1007,4 35 0,0
13.11.2018 08:00:00 1,4 1,4 3 1 4 2 ZO 1007,1 2,9 0,0
13.11.2018 07:00:00 2,3 2,3 0 0 5 3 N 1006,9 22 0,0
13.11.2018 06:00:00 1,6 1,6 2 1 9 5 ZO 1006,9 2,7 0,0
13.11.2018 05:00:00 3,4 3,1 4 2 14 8 W 1006,6 50 0,0
13.11.2018 04:00:00 4,5 4,2 7 4 14 8 WZW 1006,3 49 0,1
13.11.2018 03:00:00 4,8 4,4 6 3 15 8 WZW 1006,3 27 0,2
13.11.2018 02:00:00 5,5 5,2 8 4 16 8 ZW 1006,2 50 0,0
13.11.2018 01:00:00 5,4 5,3 4 2 10 5 ZZW 1006,3 36 0,0
13.11.2018 00:00:00 5,5 5,4 3 2 11 6 Z 1006,3 21 0,0
12.11.2018 23:00:00 5,6 5,5 4 2 15 8 ZZW 1006,6 24 0,1
12.11.2018 22:00:00 5,8 5,5 5 3 16 9 ZZW 1006,6 13 0,0
12.11.2018 21:00:00 5,8 5,5 7 4 17 9 ZZW 1006,7 19 0,1
12.11.2018 20:00:00 5,9 5,5 6 3 19 10 Z 1006,8 15 0,0
12.11.2018 19:00:00 5,9 5,6 5 3 16 9 Z 1007,3 47 0,0
12.11.2018 18:00:00 5,6 5,3 6 3 20 11 Z 1007,6 50 0,0
12.11.2018 17:00:00 5,5 5,4 7 4 24 13 Z 1007,8 42 0,0

tt = temperatuur
td = dauwpunt
ff = windsnelheid
fx = windstoten
dd = windrichting
ppp = luchtdruk
vv = zicht
rr = neerslag

Weerstations in de omgeving